FENGYUN 1D

Satellite information

Favourite Embed

Satellite Type and Status

PAYLOADIN ORBIT

Key statistics

Satellite FENGYUN 1D at a glance.

Uptime

8614

Days in orbit

Revolutions

≈ 14.1

Per day

Orbit

SSO

Sun Synchronous Orbit

Inclination

99.0

Latest

Satellite identification and parameters

Extended collection of information and parameters for FENGYUN 1D.

Object identification

Identified? True

Debris? False

Object name: FENGYUN 1D

International designator: 2002-024B

Object number (NORAD): 27431

Object ID (CCSDS): 27431

Country: PEOPLES REPUBLIC OF CHINA (PRC)

Current information (Y/N): Y

RCS size: LARGE

Orbital parameters

Period: 102.114 minutes

Inclination: 98.9815 deg

SMA: 7236.862 km

Apoapsis: 870.362 km

Periapsis: 847.092 km

RAAN: 32.0514 deg

Eccentricy: 0.00160773

Argument of periapsis: 51.6524 deg

Mean anomaly: 308.6088 deg

Mean motion: 14.10189137 rev/day

Mean motion (dot): 0.00000117 rev/day2

B* drag term: 0.000091469589 1/REarth

Two-line elements (TLE)

Creation date: Dec. 12, 2025, 10:14 a.m.

Reference frame: TEME

Reference center: EARTH

Epoch: Dec. 12, 2025, 2:55 a.m. UTC

TLE line 0: 0 FENGYUN 1D

TLE line 1: 1 27431U 02024B 25346.12205279 .00000117 00000-0 91470-4 0 9997

TLE line 2: 2 27431 98.9815 32.0514 0016077 51.6524 308.6088 14.10189137213114

Live tracking on map

Real-time ground track for satellite FENGYUN 1D.

In-orbit conjunctions

There are no conjunctions computed for FENGYUN 1D, at the moment. Check back to stay up to date, as we update our databases every day.

Go to all conjunctions

Associated space launch

HaiYang abbreviated HY, is a series of marine remote sensing satellites developed and operated by China since 2002. As of June 2020, six satellites were launched and two more are planned. Feng Yun 1D was a polar orbiting meteorological satellite.

FENGYUN 1D was lifted into orbit during the mission ‘Long March 4B | Hai Yang 1 & Feng Yun 1D’, on board a Long March 4B space rocket.

The launch took place on May 15, 2002, 1:50 a.m. from Launch Complex 7.

For more information about the launch, click the button.

Launch to space Long March 4B | Hai Yang 1 & Feng Yun 1D
Long March 4B | Hai Yang 1 & Feng Yun 1D

Agency: N/A

Status: Launch Successful

Launch date: May 15, 2002, 1:50 a.m. UTC

Rocket: Long March 4B

Launch pad: Launch Complex 7

Location: Taiyuan Satellite Launch Center, People's Republic of China

...

Latest news about this satellite

There are no fresh news available about this satellite. Check back as we update our databases every day.


Newsletter sign-up

Weekly statistics, charts and insights to help you stay on top of the space industry.